Regional Weather Roundup
Issued by NWS Albany, NY

Home | Current Version | Previous Version | Graphics & Text | Print | Product List | Glossary Off
Versions: 1 2 3 4 5 6 7 8 9 10 11 12 13 14 15 16 17 18 19 20 21 22 23 24 25 26 27 28 29 30 31 32 33 34 35 36 37 38 39 40 41 42 43 44 45 46 47 48 49 50

000
ASUS41 KALY 281010
RWRALY

NEW YORK STATE HOURLY WEATHER ROUNDUP
NATIONAL WEATHER SERVICE ALBANY NY
600 AM EDT FRI AUG 28 2015

NOTE: "FAIR" INDICATES FEW OR NO CLOUDS BELOW 12,000 FEET WITH NO
SIGNIFICANT WEATHER AND/OR NO OBSTRUCTIONS TO VISIBILITY.

NYZ032-033-038>043-046>054-057>066-NYZ062>081-281100-
EAST


CITY           SKY/WX    TMP DP  RH WIND       PRES   REMARKS
ALBANY         MOCLDY    57  53  86 CALM      30.16R
GLENS FALLS    CLEAR     51  48  89 CALM      30.15S
POUGHKEEPSIE   CLEAR     52  50  93 CALM      30.15R
NEWBURGH       CLEAR     54  54 100 W7        30.17R
MONTGOMERY     CLEAR     52  51  97 CALM      30.16R
WHITE PLAINS   CLEAR     59  53  80 NW6       30.14R
ISLIP          PTCLDY    63  55  75 NW6       30.11R
NEW YORK CITY  PTCLDY    66  55  67 N3        30.13S
CENTRAL PARK   CLEAR     64  53  67 CALM      30.17R
$$

NYZ005>009-017-018-044>046-055-056-281100-
CENTRAL


CITY           SKY/WX    TMP DP  RH WIND       PRES   REMARKS
FULTON         CLOUDY    60  56  86 SW3       30.17R
SYRACUSE       MOCLDY    56  54  93 S3        30.16S
ROME           MOCLDY    51  50  96 SE3       30.19S
ELMIRA         FOG       53  53 100 SW5       30.19S VSB 1/2
BINGHAMTON     CLEAR     52  52 100 W3        30.19S
MONTICELLO     CLEAR     50  50 100 NW6       30.19S
$$

NYZ026>034-041>043-281100-
NORTH


CITY           SKY/WX    TMP DP  RH WIND       PRES   REMARKS
WATERTOWN      MOCLDY    52  51  97 E5        30.16R
FORT DRUM      NOT AVBL
MASSENA        FOG       52  51  97 S3        30.17R VSB 3/4
SARANAC LAKE   FOG       45  44  97 CALM      30.17S VSB 3/4
PLATTSBURGH    CLEAR     54  53  97 NW3       30.15R
$$

NYZ001>004-010>016-019>021-281100-
WEST


CITY           SKY/WX    TMP DP  RH WIND       PRES   REMARKS
NIAGARA FALLS  CLEAR     51  49  92 E3        30.18R
BUFFALO        MOCLDY    56  52  86 SE3       30.18R
DUNKIRK        MOCLDY    58  54  86 S6        30.19R
JAMESTOWN      CLOUDY    50  46  87 CALM      30.20R VSB 1/4
WELLSVILLE     FOG       45  43  93 NW3       30.23R VSB 1/4
ROCHESTER      PTCLDY    52  49  89 W5        30.19R
PENN YAN       FOG       55  54  96 SW6       30.19S VSB 1/2
$$

             KEY
       WCI = WIND CHILL INDEX
       VSB = VISIBILITY
       HX  = HEAT INDEX
$$



USA.gov is the U.S. government's official web portal to all federal, state and local government web resources and services.